Regional Weather Roundup
Issued by NWS Upton, NY

Current Version | Previous Version | Graphics & Text | Print | Product List | Glossary Off
Versions: 1 2 3 4 5 6 7 8 9 10 11 12 13 14 15 16 17 18 19 20 21 22 23 24 25 26 27 28 29 30 31 32 33 34 35 36 37 38 39 40 41 42 43 44 45 46 47 48 49 50

000
ASUS41 KOKX 121904
RWROKX

REGIONAL WEATHER ROUNDUP
NATIONAL WEATHER SERVICE NEW YORK NY
200 PM EST FRI FEB 12 2016

NOTE: "FAIR" INDICATES FEW OR NO CLOUDS BELOW 12,000 FEET WITH NO
SIGNIFICANT WEATHER AND/OR OBSTRUCTIONS TO VISIBILITY.

NYZ071-072-176-178-NJZ106-104-122000-
NEW YORK CITY METRO AREA


CITY           SKY/WX    TMP DP  RH WIND       PRES   REMARKS
CENTRAL PARK   MOSUNNY   25  -1  32 VRB6      30.11F WCI  18
LAGUARDIA APRT CLOUDY    26   1  34 SW6G17    30.10F WCI  19
KENNEDY INTL   PTSUNNY   25   4  40 S12       30.13F WCI  14
NEWARK/LIBERTY CLOUDY    27  -2  28 W12G17    30.11F WCI  17
BRNX BOT. GARD   N/A     27   0  31 SW14      30.10S WCI  15
TETERBORO      MOSUNNY   27  -1  30 VRB7      30.09F WCI  19
$$

NYZ177-179-078>081-122000-
LONG ISLAND NEW YORK

CITY           SKY/WX    TMP DP  RH WIND       PRES   REMARKS
FARMINGDALE    CLOUDY    24   4  42 SW13      30.12F WCI  12
ISLIP          CLOUDY    22   4  46 SW13      30.11F WCI  10
SHIRLEY        CLOUDY    22   4  46 S12       30.12F WCI  10
RIVERHEAD        N/A     27  -8  22 S7        30.09F WCI  19
WESTHAMPTON    MOSUNNY   21   4  47 SW9       30.13F WCI  11
EAST HAMPTON   FAIR      22   6  49 S8        30.12F WCI  13
MONTAUK POINT    N/A     24   9  52 VRB5      30.12F WCI  18
$$

NYZ052-065-067-122000-
HUDSON VALLEY

CITY           SKY/WX    TMP DP  RH WIND       PRES   REMARKS
WHITE PLAINS   MOSUNNY   24   0  35 S5        30.05F WCI  18
NEWBURGH       PTSUNNY   25   3  39 SW12      30.05F WCI  14
MONTGOMERY     CLOUDY    26   3  37 S13       30.02F WCI  15
POUGHKEEPSIE   MOSUNNY   27  -1  30 SW8       30.05F WCI  19
ALBANY         CLOUDY    23   2  40 S10       30.01F WCI  12
$$

NJZ001-105-106-008-010-013-015-019>022-104-122000-
NEW JERSEY

CITY           SKY/WX    TMP DP  RH WIND       PRES   REMARKS
NEWARK/LIBERTY CLOUDY    27  -2  28 W12G17    30.11F WCI  17
TETERBORO      MOSUNNY   27  -1  30 VRB7      30.09F WCI  19
CALDWELL       MOSUNNY   25  -2  31 SW8       30.09F WCI  16
MORRISTOWN     PTSUNNY   25   3  39 SW12      30.10F WCI  14
SOMERVILLE     MOSUNNY   24   1  36 S8        30.09F WCI  15
SUSSEX         CLOUDY    25   2  37 SW9       30.03F WCI  15
ANDOVER          N/A     23   0  36 VRB6      30.04F WCI  16
TRENTON        PTSUNNY   25   4  40 S10       30.10F WCI  15
MILLVILLE      CLOUDY    25   4  40 W10       30.13F WCI  15
ATLANTIC CITY  MOSUNNY   28   0  29 SW10      30.12F WCI  19
WRIGHTSTOWN    CLOUDY    26   0  32 W12       30.09F WCI  15
TOMS RIVER     CLOUDY    28   1  31 SW13      30.12F WCI  18
BELMAR         MOSUNNY   27   0  31 SW10      30.10F WCI  17
$$

PAZ047>061-062-071-122000-
EASTERN PENNSYLVANIA

CITY           SKY/WX    TMP DP  RH WIND       PRES   REMARKS
PHILADELPHIA   CLOUDY    25   0  33 SW10G18   30.13F WCI  15
ALLENTOWN      CLOUDY    22   6  50 W10       30.08F WCI  11
SCRANTON       CLOUDY    19   4  51 SW13G20   30.00F WCI   6
$$

CTZ002-004>006-009-010-012-RIZ004-006-007-MAZ004-011-015-122000-
SOUTHERN NEW ENGLAND
 IN CT

CITY           SKY/WX    TMP DP  RH WIND       PRES   REMARKS
BRADLEY INTL   CLOUDY    22   2  42 S14G20    30.06F WCI   9
HARTFORD       MOSUNNY   24   2  38 VRB3      30.09F
DANBURY        CLOUDY    22  -2  35 VRB7      30.06F WCI  13
WTRBRY/OXFORD  CLOUDY    21  -2  35 SW6       30.04F WCI  14
BRIDGEPORT     CLOUDY    25   4  40 SW13      30.11F WCI  14
MERIDEN        MOSUNNY   24   2  38 S12       30.08F WCI  13
NEW HAVEN      CLOUDY    23   4  44 SW9G16    30.11F WCI  13
CHESTER        FAIR      23   3  42 SW10      30.07F WCI  12
GROTON         CLOUDY    22  10  60 W10       30.11F WCI  11
WILLIMANTIC    CLOUDY    23  -1  35 SW5       30.08F WCI  17

 IN RI

CITY           SKY/WX    TMP DP  RH WIND       PRES   REMARKS
PROVIDENCE     PTSUNNY   22   1  40 SW6       30.10F WCI  14
BLOCK ISLAND   PTSUNNY   25  10  54 SW8       30.10F WCI  16
WESTERLY       PTSUNNY   23   6  48 W8        30.11F WCI  14

 IN MA

CITY           SKY/WX    TMP DP  RH WIND       PRES   REMARKS
BOSTON         CLOUDY    23   2  40 SW5       30.08F WCI  17
WORCESTER      MOSUNNY   17   1  49 SW9       29.99F WCI   6
WESTFIELD      CLOUDY    22  -2  35 S3G16     30.04F
PROVINCETOWN   SUNNY     21   6  52 S8        30.11F WCI  11
NANTUCKET      SUNNY     22   8  55 W12       30.13F WCI  10
$$

ANZ330-335-338-340-345-350-353-355-122000-
COASTAL MARINE OBSERVATIONS


STATION/POSITION TIME  SKY/WX   TEMP    WIND        PRES    VSBY  WAVE
                                AIR SEA DIR/SP/G                  HT/PER
                 (UTC)          (F)     (DEG/KT/KT) (MB)    (MI)  (FT/S)
NY HARB ENTRANCE 1750            22 42  200/  6/ 10 1021.3          1/ 9
4S FIRE IS       NOT AVBL
20S FIRE ISLAND  1750            22 41  230/  6/ 10 1021.7          2/ 4
GREAT SOUTH BAY  NOT AVBL
23SW MTP         1850            23 45  240/ 10/ 12 1020.1          3/ 6
HUDSON CANYON    1750            26 48              1021.7          4/ 5
KINGS POINT      1800            24 36  260/ 11/ 14 1019.8
EXECUTION ROCKS  NOT AVBL
CENTRAL LI SOUND 1730            22     250/  8/ 12   N/A           1/ 4
EASTERN LI SOUND 1800            25 40  240/ 10/ 16   N/A
ROBBINS REEF     1800            23     230/ 10/ 12 1019.8
$$


>>>>>>>>>>>>>>>>>>>>>>>>>>>> KEY <<<<<<<<<<<<<<<<<<<<<<<<<<<
>                                                          <
>     SKY/WX - SKY CONDITION/PRESENT WEATHER               <
>     TMP    - TEMPERATURE IN FAHRENHEIT                   <
>     DP     - DEWPOINT IN FAHRENHEIT                      <
>     RH     - RELATIVE HUMIDITY IN PERCENT                <
>     WIND   - DIRECTION AND SPEED IN MPH                  <
>     PRES   - MEAN SEA LEVEL PRESSURE IN INCHES OF HG     <
>     WCI    - WIND CHILL INDEX                            <
>     VSB    - VISIBILITY IN MILES                         <
>     HX     - HEAT INDEX                                  <
>     TC     - TEMPERATURE IN CELSIUS                      <
>     VRB    - VARIABLE WIND DIRECTION                     <
>                                                          <
>>>>>>>>>>>>>>>>>>>>>>>>>>>> KEY <<<<<<<<<<<<<<<<<<<<<<<<<<<





USA.gov is the U.S. government's official web portal to all federal, state and local government web resources and services.